Ketchikan, AK

4:16 AM AKST on December 04, 2016 (GMT -0900)
Ketchikan International

Weather History for PAKT - August, 2013

Change the Weather History Date:

Friday, August 30, 2013

  Actual Average Record
Temperature  
Mean Temperature 62 °F -  
Max Temperature 64 °F 63 °F 81 °F (1963)
Min Temperature 59 °F 50 °F 39 °F (1998)
Degree Days  
Heating Degree Days 4    
Growing Degree Days 12 (Base 50)    
Moisture  
Dew Point 59 °F    
Average Humidity 95    
Maximum Humidity 100    
Minimum Humidity 78    
Precipitation  
Precipitation 0.65 in - - ()
Sea Level Pressure  
Sea Level Pressure 29.95 in    
Wind  
Wind Speed 7 mph (SE)    
Max Wind Speed 15 mph    
Max Gust Speed 25 mph    
Visibility 7 miles    
Events Rain    
Averages and records for this station are not official NWS values.
T = Trace of Precipitation, MM = Missing Value Source: NWS Daily Summary

Daily Weather History Graph

Daily Weather History Graph

Search for Another Location

Airport or City:

Trip Planner

Search our weather history database for the weather conditions in past years. The results will help you decide how hot, cold, wet, or windy it might be!

Date:

Astronomy

Aug. 30, 2013 Rise Set
Actual Time 5:49 AM AKDT 7:43 PM AKDT
Civil Twilight 5:10 AM AKDT 8:22 PM AKDT
Nautical Twilight 4:21 AM AKDT 9:11 PM AKDT
Astronomical Twilight 3:24 AM AKDT 10:07 PM AKDT
Moon 12:01 AM AKDT (8/30) 4:35 PM AKDT (8/30)
Length of Visible Light 15h 12m
Length of Day
13h 54m
Waning Crescent, 28% of the Moon is Illuminated
Aug 30
Waning Crescent
Sep 5
New
Sep 12
First Quarter
Sep 19
Full
Sep 26
Last Quarter

Hourly Weather History & Observations

Time (AKDT) Temp. Dew Point Humidity Pressure Visibility Wind Dir Wind Speed Gust Speed Precip Events Conditions
12:53 AM 59.0 °F 59.0 °F 100% 29.78 in 10.0 mi SE 4.6 mph - 0.00 in Rain Light Rain
1:53 AM 59.0 °F 59.0 °F 100% 29.79 in 10.0 mi SE 5.8 mph - 0.00 in   Overcast
2:10 AM 59.0 °F 59.0 °F 100% 29.79 in 5.0 mi SE 4.6 mph - 0.01 in Rain Light Rain
2:20 AM 59.0 °F 59.0 °F 100% 29.79 in 5.0 mi SE 4.6 mph - 0.03 in Rain Light Rain
2:53 AM 59.0 °F 59.0 °F 100% 29.80 in 3.0 mi SSE 3.5 mph - 0.06 in Rain Light Rain
3:01 AM 59.0 °F 59.0 °F 100% 29.80 in 5.0 mi Calm Calm - 0.01 in Rain Light Rain
3:53 AM 59.0 °F 59.0 °F 100% 29.81 in 10.0 mi Calm Calm - 0.03 in Rain Light Rain
4:53 AM 59.0 °F 59.0 °F 100% 29.83 in 4.0 mi SE 4.6 mph - 0.02 in Rain Rain
5:03 AM 59.0 °F 59.0 °F 100% 29.83 in 2.5 mi SSE 4.6 mph - 0.03 in Rain Rain
5:13 AM 59.0 °F 59.0 °F 100% 29.84 in 4.0 mi SE 6.9 mph - 0.05 in Rain Light Rain
5:29 AM 59.0 °F 59.0 °F 100% 29.84 in 2.5 mi SSE 8.1 mph - 0.09 in Rain Light Rain
5:32 AM 59.0 °F 59.0 °F 100% 29.85 in 3.0 mi SSE 9.2 mph - 0.10 in Rain Light Rain
5:53 AM 60.1 °F 60.1 °F 100% 29.86 in 3.0 mi SE 12.7 mph - 0.12 in Rain Light Rain
6:09 AM 60.8 °F 60.8 °F 100% 29.86 in 8.0 mi SE 11.5 mph - 0.02 in Rain Light Rain
6:53 AM 60.1 °F 60.1 °F 100% 29.89 in 10.0 mi SE 11.5 mph 20.7 mph 0.02 in   Overcast
7:53 AM 60.1 °F 57.9 °F 93% 29.91 in 10.0 mi SSE 9.2 mph - N/A   Overcast
8:53 AM 61.0 °F 59.0 °F 93% 29.93 in 10.0 mi SSE 8.1 mph - N/A   Mostly Cloudy
9:53 AM 63.0 °F 57.9 °F 84% 29.95 in 10.0 mi SSE 8.1 mph - N/A   Overcast
10:53 AM 63.0 °F 57.0 °F 81% 29.97 in 10.0 mi SE 12.7 mph - N/A   Overcast
11:53 AM 64.0 °F 57.0 °F 78% 29.98 in 10.0 mi SE 9.2 mph - N/A   Overcast
12:53 PM 64.0 °F 57.9 °F 80% 29.99 in 10.0 mi SE 6.9 mph - 0.00 in   Overcast
1:53 PM 64.0 °F 57.0 °F 78% 30.00 in 10.0 mi SSE 9.2 mph - 0.00 in   Overcast
2:53 PM 62.1 °F 59.0 °F 90% 30.02 in 10.0 mi SE 9.2 mph - 0.00 in   Overcast
3:53 PM 64.0 °F 57.0 °F 78% 30.02 in 10.0 mi SE 12.7 mph 25.3 mph N/A   Overcast
4:53 PM 62.1 °F 57.9 °F 86% 30.03 in 10.0 mi SE 9.2 mph - N/A   Overcast
5:53 PM 62.1 °F 59.0 °F 90% 30.03 in 10.0 mi ESE 11.5 mph - N/A   Overcast
6:53 PM 59.0 °F 59.0 °F 100% 30.03 in 10.0 mi SE 8.1 mph - 0.01 in Rain Light Rain
7:53 PM 59.0 °F 59.0 °F 100% 30.05 in 5.0 mi South 5.8 mph - 0.05 in Rain Light Rain
8:53 PM 59.0 °F 59.0 °F 100% 30.05 in 7.0 mi SSE 9.2 mph - 0.05 in Rain Light Rain
9:53 PM 59.0 °F 59.0 °F 100% 30.06 in 4.0 mi SSE 8.1 mph - 0.09 in Rain Light Rain
10:09 PM 59.0 °F 59.0 °F 100% 30.06 in 4.0 mi SSE 9.2 mph - 0.04 in Rain Light Rain
10:29 PM 59.0 °F 59.0 °F 100% 30.06 in 2.5 mi SE 10.4 mph - 0.12 in Rain Rain
10:51 PM 59.0 °F 59.0 °F 100% 30.08 in 3.0 mi SE 15.0 mph - 0.17 in Rain Light Rain
10:53 PM 59.0 °F 59.0 °F 100% 30.09 in 4.0 mi SE 13.8 mph - 0.18 in Rain Light Rain
11:02 PM 59.0 °F 59.0 °F 100% 30.08 in 10.0 mi SE 12.7 mph 21.9 mph 0.00 in Rain Light Rain
11:15 PM 59.0 °F 57.2 °F 94% 30.08 in 10.0 mi SE 11.5 mph - 0.00 in Rain Light Rain
11:35 PM 59.0 °F 59.0 °F 100% 30.09 in 7.0 mi ESE 8.1 mph - 0.01 in Rain Light Rain
11:53 PM 59.0 °F 59.0 °F 100% 30.09 in 10.0 mi SE 13.8 mph - 0.02 in Rain Light Rain